Year,Month,Day,Hour,Minute,Value (Times are PST for temperature in C)
2014,08,23,00,00,18.40
2014,08,23,00,01,18.40
2014,08,23,00,02,18.40
2014,08,23,00,03,18.40
2014,08,23,00,04,18.40
2014,08,23,00,05,18.40
2014,08,23,00,06,18.30
2014,08,23,00,07,18.30
2014,08,23,00,08,18.30
2014,08,23,00,09,18.20
2014,08,23,00,10,18.10
2014,08,23,00,11,18.10
2014,08,23,00,12,18.00
2014,08,23,00,13,18.00
2014,08,23,00,14,17.90
2014,08,23,00,15,17.90
2014,08,23,00,16,17.80
2014,08,23,00,17,17.80
2014,08,23,00,18,17.80
2014,08,23,00,19,17.70
2014,08,23,00,20,17.70
2014,08,23,00,21,17.70
2014,08,23,00,22,17.70
2014,08,23,00,23,17.70
2014,08,23,00,24,17.70
2014,08,23,00,25,17.60
2014,08,23,00,26,17.60
2014,08,23,00,27,17.60
2014,08,23,00,28,17.60
2014,08,23,00,29,17.50
2014,08,23,00,30,17.50
2014,08,23,00,31,17.50
2014,08,23,00,32,17.40
2014,08,23,00,33,17.40
2014,08,23,00,34,17.40
2014,08,23,00,35,17.40
2014,08,23,00,36,17.30
2014,08,23,00,37,17.30
2014,08,23,00,38,17.30
2014,08,23,00,39,17.30
2014,08,23,00,40,17.30
2014,08,23,00,41,17.30
2014,08,23,00,42,17.30
2014,08,23,00,43,17.30
2014,08,23,00,44,17.30
2014,08,23,00,45,17.30
2014,08,23,00,46,17.30
2014,08,23,00,47,17.30
2014,08,23,00,48,17.30
2014,08,23,00,49,17.30
2014,08,23,00,50,17.30
2014,08,23,00,51,17.30
2014,08,23,00,52,17.30
2014,08,23,00,53,17.30
2014,08,23,00,54,17.30
2014,08,23,00,55,17.30
2014,08,23,00,56,17.30
2014,08,23,00,57,17.30
2014,08,23,00,58,17.40
2014,08,23,00,59,17.40
2014,08,23,01,00,17.50
2014,08,23,01,01,17.50
2014,08,23,01,02,17.60
2014,08,23,01,03,17.60
2014,08,23,01,04,17.60
2014,08,23,01,05,17.70
2014,08,23,01,06,17.70
2014,08,23,01,07,17.80
2014,08,23,01,08,17.90
2014,08,23,01,09,17.90
2014,08,23,01,10,18.00
2014,08,23,01,11,18.20
2014,08,23,01,12,18.30
2014,08,23,01,13,18.50
2014,08,23,01,14,18.60
2014,08,23,01,15,18.70
2014,08,23,01,16,18.80
2014,08,23,01,17,18.80
2014,08,23,01,18,18.90
2014,08,23,01,19,18.90
2014,08,23,01,20,18.90
2014,08,23,01,21,18.90
2014,08,23,01,22,18.90
2014,08,23,01,23,18.90
2014,08,23,01,24,18.90
2014,08,23,01,25,18.90
2014,08,23,01,26,18.90
2014,08,23,01,27,18.80
2014,08,23,01,28,18.80
2014,08,23,01,29,18.80
2014,08,23,01,30,18.70
2014,08,23,01,31,18.70
2014,08,23,01,32,18.60
2014,08,23,01,33,18.60
2014,08,23,01,34,18.50
2014,08,23,01,35,18.50
2014,08,23,01,36,18.40
2014,08,23,01,37,18.40
2014,08,23,01,38,18.40
2014,08,23,01,39,18.30
2014,08,23,01,40,18.30
2014,08,23,01,41,18.30
2014,08,23,01,42,18.20
2014,08,23,01,43,18.20
2014,08,23,01,44,18.10
2014,08,23,01,45,18.10
2014,08,23,01,46,18.10
2014,08,23,01,47,18.10
2014,08,23,01,48,18.10
2014,08,23,01,49,18.10
2014,08,23,01,50,18.10
2014,08,23,01,51,18.20
2014,08,23,01,52,18.20
2014,08,23,01,53,18.30
2014,08,23,01,54,18.30
2014,08,23,01,55,18.30
2014,08,23,01,56,18.40
2014,08,23,01,57,18.40
2014,08,23,01,58,18.50
2014,08,23,01,59,18.50
2014,08,23,02,00,18.60
2014,08,23,02,01,18.60
2014,08,23,02,02,18.60
2014,08,23,02,03,18.70
2014,08,23,02,04,18.70
2014,08,23,02,05,18.70
2014,08,23,02,06,18.70
2014,08,23,02,07,18.70
2014,08,23,02,08,18.70
2014,08,23,02,09,18.70
2014,08,23,02,10,18.70
2014,08,23,02,11,18.70
2014,08,23,02,12,18.70
2014,08,23,02,13,18.70
2014,08,23,02,14,18.70
2014,08,23,02,15,18.70
2014,08,23,02,16,18.70
2014,08,23,02,17,18.70
2014,08,23,02,18,18.70
2014,08,23,02,19,18.70
2014,08,23,02,20,18.70
2014,08,23,02,21,18.70
2014,08,23,02,22,18.70
2014,08,23,02,23,18.70
2014,08,23,02,24,18.70
2014,08,23,02,25,18.70
2014,08,23,02,26,18.70
2014,08,23,02,27,18.70
2014,08,23,02,28,18.70
2014,08,23,02,29,18.70
2014,08,23,02,30,18.60
2014,08,23,02,31,18.60
2014,08,23,02,32,18.60
2014,08,23,02,33,18.50
2014,08,23,02,34,18.50
2014,08,23,02,35,18.40
2014,08,23,02,36,18.40
2014,08,23,02,37,18.40
2014,08,23,02,38,18.30
2014,08,23,02,39,18.20
2014,08,23,02,40,18.20
2014,08,23,02,41,18.10
2014,08,23,02,42,18.00
2014,08,23,02,43,17.90
2014,08,23,02,44,17.80
2014,08,23,02,45,17.80
2014,08,23,02,46,17.70
2014,08,23,02,47,17.70
2014,08,23,02,48,17.70
2014,08,23,02,49,17.70
2014,08,23,02,50,17.70
2014,08,23,02,51,17.70
2014,08,23,02,52,17.70
2014,08,23,02,53,17.70
2014,08,23,02,54,17.70
2014,08,23,02,55,17.80
2014,08,23,02,56,17.90
2014,08,23,02,57,17.90
2014,08,23,02,58,18.00
2014,08,23,02,59,18.00
2014,08,23,03,00,18.10
2014,08,23,03,01,18.10
2014,08,23,03,02,18.20
2014,08,23,03,03,18.20
2014,08,23,03,04,18.20
2014,08,23,03,05,18.20
2014,08,23,03,06,18.20
2014,08,23,03,07,18.20
2014,08,23,03,08,18.20
2014,08,23,03,09,18.20
2014,08,23,03,10,18.20
2014,08,23,03,11,18.10
2014,08,23,03,12,18.10
2014,08,23,03,13,18.10
2014,08,23,03,14,18.00
2014,08,23,03,15,18.00
2014,08,23,03,16,17.90
2014,08,23,03,17,17.90
2014,08,23,03,18,17.90
2014,08,23,03,19,17.80
2014,08,23,03,20,17.80
2014,08,23,03,21,17.80
2014,08,23,03,22,17.80
2014,08,23,03,23,17.80
2014,08,23,03,24,17.80
2014,08,23,03,25,17.80
2014,08,23,03,26,17.70
2014,08,23,03,27,17.70
2014,08,23,03,28,17.70
2014,08,23,03,29,17.70
2014,08,23,03,30,17.70
2014,08,23,03,31,17.70
2014,08,23,03,32,17.70
2014,08,23,03,33,17.70
2014,08,23,03,34,17.70
2014,08,23,03,35,17.70
2014,08,23,03,36,17.70
2014,08,23,03,37,17.70
2014,08,23,03,38,17.70
2014,08,23,03,39,17.70
2014,08,23,03,40,17.70
2014,08,23,03,41,17.70
2014,08,23,03,42,17.70
2014,08,23,03,43,17.70
2014,08,23,03,44,17.70
2014,08,23,03,45,17.60
2014,08,23,03,46,17.60
2014,08,23,03,47,17.60
2014,08,23,03,48,17.60
2014,08,23,03,49,17.60
2014,08,23,03,50,17.60
2014,08,23,03,51,17.60
2014,08,23,03,52,17.60
2014,08,23,03,53,17.60
2014,08,23,03,54,17.60
2014,08,23,03,55,17.60
2014,08,23,03,56,17.60
2014,08,23,03,57,17.50
2014,08,23,03,58,17.50
2014,08,23,03,59,17.40
2014,08,23,04,00,17.40
2014,08,23,04,01,17.40
2014,08,23,04,02,17.40
2014,08,23,04,03,17.40
2014,08,23,04,04,17.40
2014,08,23,04,05,17.50
2014,08,23,04,06,17.60
2014,08,23,04,07,17.60
2014,08,23,04,08,17.70
2014,08,23,04,09,17.70
2014,08,23,04,10,17.70
2014,08,23,04,11,17.70
2014,08,23,04,12,17.70
2014,08,23,04,13,17.70
2014,08,23,04,14,17.60
2014,08,23,04,15,17.60
2014,08,23,04,16,17.50
2014,08,23,04,17,17.40
2014,08,23,04,18,17.40
2014,08,23,04,19,17.30
2014,08,23,04,20,17.20
2014,08,23,04,21,17.10
2014,08,23,04,22,17.00
2014,08,23,04,23,16.90
2014,08,23,04,24,16.90
2014,08,23,04,25,16.80
2014,08,23,04,26,16.70
2014,08,23,04,27,16.60
2014,08,23,04,28,16.50
2014,08,23,04,29,16.40
2014,08,23,04,30,16.30
2014,08,23,04,31,16.20
2014,08,23,04,32,16.10
2014,08,23,04,33,16.00
2014,08,23,04,34,16.00
2014,08,23,04,35,15.90
2014,08,23,04,36,15.80
2014,08,23,04,37,15.80
2014,08,23,04,38,15.80
2014,08,23,04,39,15.70
2014,08,23,04,40,15.70
2014,08,23,04,41,15.80
2014,08,23,04,42,15.80
2014,08,23,04,43,15.80
2014,08,23,04,44,15.80
2014,08,23,04,45,15.70
2014,08,23,04,46,15.70
2014,08,23,04,47,15.70
2014,08,23,04,48,15.60
2014,08,23,04,49,15.60
2014,08,23,04,50,15.60
2014,08,23,04,51,15.50
2014,08,23,04,52,15.40
2014,08,23,04,53,15.40
2014,08,23,04,54,15.30
2014,08,23,04,55,15.20
2014,08,23,04,56,15.20
2014,08,23,04,57,15.10
2014,08,23,04,58,15.10
2014,08,23,04,59,15.00
2014,08,23,05,00,15.00
2014,08,23,05,01,15.00
2014,08,23,05,02,15.00
2014,08,23,05,03,15.00
2014,08,23,05,04,15.00
2014,08,23,05,05,15.10
2014,08,23,05,06,15.10
2014,08,23,05,07,15.10
2014,08,23,05,08,15.10
2014,08,23,05,09,15.10
2014,08,23,05,10,15.10
2014,08,23,05,11,15.00
2014,08,23,05,12,15.00
2014,08,23,05,13,14.90
2014,08,23,05,14,14.90
2014,08,23,05,15,14.80
2014,08,23,05,16,14.80
2014,08,23,05,17,14.80
2014,08,23,05,18,14.70
2014,08,23,05,19,14.70
2014,08,23,05,20,14.70
2014,08,23,05,21,14.60
2014,08,23,05,22,14.60
2014,08,23,05,23,14.60
2014,08,23,05,24,14.50
2014,08,23,05,25,14.50
2014,08,23,05,26,14.40
2014,08,23,05,27,14.40
2014,08,23,05,28,14.40
2014,08,23,05,29,14.40
2014,08,23,05,30,14.40
2014,08,23,05,31,14.40
2014,08,23,05,32,14.40
2014,08,23,05,33,14.40
2014,08,23,05,34,14.40
2014,08,23,05,35,14.40
2014,08,23,05,36,14.40
2014,08,23,05,37,14.40
2014,08,23,05,38,14.40
2014,08,23,05,39,14.40
2014,08,23,05,40,14.40
2014,08,23,05,41,14.40
2014,08,23,05,42,14.40
2014,08,23,05,43,14.40
2014,08,23,05,44,14.40
2014,08,23,05,45,14.40
2014,08,23,05,46,14.40
2014,08,23,05,47,14.40
2014,08,23,05,48,14.30
2014,08,23,05,49,14.30
2014,08,23,05,50,14.30
2014,08,23,05,51,14.30
2014,08,23,05,52,14.30
2014,08,23,05,53,14.30
2014,08,23,05,54,14.30
2014,08,23,05,55,14.30
2014,08,23,05,56,14.20
2014,08,23,05,57,14.20
2014,08,23,05,58,14.20
2014,08,23,05,59,14.20
2014,08,23,06,00,14.20
2014,08,23,06,01,14.20
2014,08,23,06,02,14.10
2014,08,23,06,03,14.10
2014,08,23,06,04,14.10
2014,08,23,06,05,14.10
2014,08,23,06,06,14.10
2014,08,23,06,07,14.10
2014,08,23,06,08,14.10
2014,08,23,06,09,14.10
2014,08,23,06,10,14.10
2014,08,23,06,11,14.10
2014,08,23,06,12,14.10
2014,08,23,06,13,14.10
2014,08,23,06,14,14.00
2014,08,23,06,15,14.10
2014,08,23,06,16,14.10
2014,08,23,06,17,14.10
2014,08,23,06,18,14.10
2014,08,23,06,19,14.10
2014,08,23,06,20,14.10
2014,08,23,06,21,14.10
2014,08,23,06,22,14.10
2014,08,23,06,23,14.10
2014,08,23,06,24,14.10
2014,08,23,06,25,14.10
2014,08,23,06,26,14.10
2014,08,23,06,27,14.10
2014,08,23,06,28,14.20
2014,08,23,06,29,14.20
2014,08,23,06,30,14.20
2014,08,23,06,31,14.20
2014,08,23,06,32,14.30
2014,08,23,06,33,14.30
2014,08,23,06,34,14.30
2014,08,23,06,35,14.30
2014,08,23,06,36,14.40
2014,08,23,06,37,14.40
2014,08,23,06,38,14.40
2014,08,23,06,39,14.40
2014,08,23,06,40,14.40
2014,08,23,06,41,14.40
2014,08,23,06,42,14.40
2014,08,23,06,43,14.40
2014,08,23,06,44,14.40
2014,08,23,06,45,14.50
2014,08,23,06,46,14.50
2014,08,23,06,47,14.50
2014,08,23,06,48,14.50
2014,08,23,06,49,14.50
2014,08,23,06,50,14.50
2014,08,23,06,51,14.60
2014,08,23,06,52,14.60
2014,08,23,06,53,14.60
2014,08,23,06,54,14.60
2014,08,23,06,55,14.60
2014,08,23,06,56,14.60
2014,08,23,06,57,14.60
2014,08,23,06,58,14.60
2014,08,23,06,59,14.60
2014,08,23,07,00,14.60
2014,08,23,07,01,14.60
2014,08,23,07,02,14.60
2014,08,23,07,03,14.60
2014,08,23,07,04,14.60
2014,08,23,07,05,14.60
2014,08,23,07,06,14.60
2014,08,23,07,07,14.60
2014,08,23,07,08,14.60
2014,08,23,07,09,14.70
2014,08,23,07,10,14.70
2014,08,23,07,11,14.70
2014,08,23,07,12,14.70
2014,08,23,07,13,14.70
2014,08,23,07,14,14.70
2014,08,23,07,15,14.80
2014,08,23,07,16,14.80
2014,08,23,07,17,14.80
2014,08,23,07,18,14.80
2014,08,23,07,19,14.80
2014,08,23,07,20,14.90
2014,08,23,07,21,14.90
2014,08,23,07,22,14.90
2014,08,23,07,23,14.90
2014,08,23,07,24,15.00
2014,08,23,07,25,15.00
2014,08,23,07,26,15.10
2014,08,23,07,27,15.10
2014,08,23,07,28,15.20
2014,08,23,07,29,15.20
2014,08,23,07,30,15.20
2014,08,23,07,31,15.30
2014,08,23,07,32,15.40
2014,08,23,07,33,15.40
2014,08,23,07,34,15.50
2014,08,23,07,35,15.60
2014,08,23,07,36,15.60
2014,08,23,07,37,15.70
2014,08,23,07,38,15.80
2014,08,23,07,39,15.80
2014,08,23,07,40,15.90
2014,08,23,07,41,16.00
2014,08,23,07,42,16.10
2014,08,23,07,43,16.20
2014,08,23,07,44,16.20
2014,08,23,07,45,16.30
2014,08,23,07,46,16.40
2014,08,23,07,47,16.40
2014,08,23,07,48,16.50
2014,08,23,07,49,16.50
2014,08,23,07,50,16.60
2014,08,23,07,51,16.60
2014,08,23,07,52,16.60
2014,08,23,07,53,16.60
2014,08,23,07,54,16.70
2014,08,23,07,55,16.70
2014,08,23,07,56,16.70
2014,08,23,07,57,16.70
2014,08,23,07,58,16.70
2014,08,23,07,59,16.70
2014,08,23,08,00,16.70
2014,08,23,08,01,16.70
2014,08,23,08,02,16.70
2014,08,23,08,03,16.70
2014,08,23,08,04,16.70
2014,08,23,08,05,16.70
2014,08,23,08,06,16.70
2014,08,23,08,07,16.70
2014,08,23,08,08,16.70
2014,08,23,08,09,16.70
2014,08,23,08,10,16.70
2014,08,23,08,11,16.80
2014,08,23,08,12,16.80
2014,08,23,08,13,16.80
2014,08,23,08,14,16.80
2014,08,23,08,15,16.80
2014,08,23,08,16,16.80
2014,08,23,08,17,16.80
2014,08,23,08,18,16.80
2014,08,23,08,19,16.80
2014,08,23,08,20,16.80
2014,08,23,08,21,16.80
2014,08,23,08,22,16.80
2014,08,23,08,23,16.80
2014,08,23,08,24,16.80
2014,08,23,08,25,16.80
2014,08,23,08,26,16.80
2014,08,23,08,27,16.80
2014,08,23,08,28,16.80
2014,08,23,08,29,16.80
2014,08,23,08,30,16.80
2014,08,23,08,31,16.90
2014,08,23,08,32,16.90
2014,08,23,08,33,17.00
2014,08,23,08,34,17.00
2014,08,23,08,35,17.10
2014,08,23,08,36,17.20
2014,08,23,08,37,17.20
2014,08,23,08,38,17.30
2014,08,23,08,39,17.40
2014,08,23,08,40,17.40
2014,08,23,08,41,17.50
2014,08,23,08,42,17.60
2014,08,23,08,43,17.60
2014,08,23,08,44,17.70
2014,08,23,08,45,17.80
2014,08,23,08,46,17.80
2014,08,23,08,47,17.90
2014,08,23,08,48,18.00
2014,08,23,08,49,18.00
2014,08,23,08,50,18.10
2014,08,23,08,51,18.20
2014,08,23,08,52,18.20
2014,08,23,08,53,18.30
2014,08,23,08,54,18.40
2014,08,23,08,55,18.40
2014,08,23,08,56,18.50
2014,08,23,08,57,18.60
2014,08,23,08,58,18.70
2014,08,23,08,59,18.70
2014,08,23,09,00,18.80
2014,08,23,09,01,18.80
2014,08,23,09,02,18.90
2014,08,23,09,03,19.00
2014,08,23,09,04,19.10
2014,08,23,09,05,19.10
2014,08,23,09,06,19.20
2014,08,23,09,07,19.20
2014,08,23,09,08,19.30
2014,08,23,09,09,19.40
2014,08,23,09,10,19.40
2014,08,23,09,11,19.40
2014,08,23,09,12,19.50
2014,08,23,09,13,19.50
2014,08,23,09,14,19.60
2014,08,23,09,15,19.70
2014,08,23,09,16,19.70
2014,08,23,09,17,19.70
2014,08,23,09,18,19.80
2014,08,23,09,19,19.80
2014,08,23,09,20,19.80
2014,08,23,09,21,19.80
2014,08,23,09,22,19.70
2014,08,23,09,23,19.60
2014,08,23,09,24,19.50
2014,08,23,09,25,19.50
2014,08,23,09,26,19.40
2014,08,23,09,27,19.40
2014,08,23,09,28,19.30
2014,08,23,09,29,19.30
2014,08,23,09,30,19.20
2014,08,23,09,31,19.10
2014,08,23,09,32,19.10
2014,08,23,09,33,19.00
2014,08,23,09,34,19.00
2014,08,23,09,35,19.00
2014,08,23,09,36,19.00
2014,08,23,09,37,19.10
2014,08,23,09,38,19.10
2014,08,23,09,39,19.20
2014,08,23,09,40,19.20
2014,08,23,09,41,19.20
2014,08,23,09,42,19.30
2014,08,23,09,43,19.40
2014,08,23,09,44,19.40
2014,08,23,09,45,19.50
2014,08,23,09,46,19.60
2014,08,23,09,47,19.60
2014,08,23,09,48,19.70
2014,08,23,09,49,19.80
2014,08,23,09,50,19.80
2014,08,23,09,51,19.90
2014,08,23,09,52,19.90
2014,08,23,09,53,20.00
2014,08,23,09,54,20.10
2014,08,23,09,55,20.10
2014,08,23,09,56,20.20
2014,08,23,09,57,20.30
2014,08,23,09,58,20.40
2014,08,23,09,59,20.50
2014,08,23,10,00,20.50
2014,08,23,10,01,20.60
2014,08,23,10,02,20.60
2014,08,23,10,03,20.60
2014,08,23,10,04,20.60
2014,08,23,10,05,20.60
2014,08,23,10,06,20.60
2014,08,23,10,07,20.70
2014,08,23,10,08,20.60
2014,08,23,10,09,20.60
2014,08,23,10,10,20.50
2014,08,23,10,11,20.50
2014,08,23,10,12,20.40
2014,08,23,10,13,20.40
2014,08,23,10,14,20.40
2014,08,23,10,15,20.40
2014,08,23,10,16,20.40
2014,08,23,10,17,20.40
2014,08,23,10,18,20.40
2014,08,23,10,19,20.50
2014,08,23,10,20,20.50
2014,08,23,10,21,20.60
2014,08,23,10,22,20.50
2014,08,23,10,23,20.40
2014,08,23,10,24,20.40
2014,08,23,10,25,20.30
2014,08,23,10,26,20.30
2014,08,23,10,27,20.30
2014,08,23,10,28,20.30
2014,08,23,10,29,20.30
2014,08,23,10,30,20.40
2014,08,23,10,31,20.50
2014,08,23,10,32,20.50
2014,08,23,10,33,20.60
2014,08,23,10,34,20.70
2014,08,23,10,35,20.80
2014,08,23,10,36,20.90
2014,08,23,10,37,20.90
2014,08,23,10,38,20.90
2014,08,23,10,39,20.90
2014,08,23,10,40,20.90
2014,08,23,10,41,20.90
2014,08,23,10,42,20.80
2014,08,23,10,43,20.80
2014,08,23,10,44,20.80
2014,08,23,10,45,20.80
2014,08,23,10,46,20.80
2014,08,23,10,47,20.80
2014,08,23,10,48,20.80
2014,08,23,10,49,20.80
2014,08,23,10,50,20.80
2014,08,23,10,51,20.90
2014,08,23,10,52,20.90
2014,08,23,10,53,20.90
2014,08,23,10,54,20.90
2014,08,23,10,55,20.90
2014,08,23,10,56,20.90
2014,08,23,10,57,21.00
2014,08,23,10,58,21.00
2014,08,23,10,59,21.10
2014,08,23,11,00,21.20
2014,08,23,11,01,21.30
2014,08,23,11,02,21.40
2014,08,23,11,03,21.50
2014,08,23,11,04,21.60
2014,08,23,11,05,21.60
2014,08,23,11,06,21.60
2014,08,23,11,07,21.60
2014,08,23,11,08,21.60
2014,08,23,11,09,21.60
2014,08,23,11,10,21.60
2014,08,23,11,11,21.60
2014,08,23,11,12,21.70
2014,08,23,11,13,21.70
2014,08,23,11,14,21.70
2014,08,23,11,15,21.70
2014,08,23,11,16,21.60
2014,08,23,11,17,21.60
2014,08,23,11,18,21.60
2014,08,23,11,19,21.70
2014,08,23,11,20,21.70
2014,08,23,11,21,21.80
2014,08,23,11,22,21.80
2014,08,23,11,23,21.80
2014,08,23,11,24,21.90
2014,08,23,11,25,22.00
2014,08,23,11,26,22.10
2014,08,23,11,27,22.10
2014,08,23,11,28,22.20
2014,08,23,11,29,22.20
2014,08,23,11,30,22.20
2014,08,23,11,31,22.30
2014,08,23,11,32,22.30
2014,08,23,11,33,22.30
2014,08,23,11,34,22.30
2014,08,23,11,35,22.30
2014,08,23,11,36,22.30
2014,08,23,11,37,22.30
2014,08,23,11,38,22.30
2014,08,23,11,39,22.30
2014,08,23,11,40,22.30
2014,08,23,11,41,22.30
2014,08,23,11,42,22.30
2014,08,23,11,43,22.40
2014,08,23,11,44,22.50
2014,08,23,11,45,22.50
2014,08,23,11,46,22.60
2014,08,23,11,47,22.60
2014,08,23,11,48,22.60
2014,08,23,11,49,22.60
2014,08,23,11,50,22.60
2014,08,23,11,51,22.50
2014,08,23,11,52,22.40
2014,08,23,11,53,22.40
2014,08,23,11,54,22.40
2014,08,23,11,55,22.50
2014,08,23,11,56,22.50
2014,08,23,11,57,22.50
2014,08,23,11,58,22.60
2014,08,23,11,59,22.70
2014,08,23,12,00,22.70
2014,08,23,12,01,22.80
2014,08,23,12,02,22.80
2014,08,23,12,03,22.80
2014,08,23,12,04,22.90
2014,08,23,12,05,22.90
2014,08,23,12,06,22.90
2014,08,23,12,07,22.90
2014,08,23,12,08,22.90
2014,08,23,12,09,22.90
2014,08,23,12,10,22.90
2014,08,23,12,11,22.90
2014,08,23,12,12,22.90
2014,08,23,12,13,22.80
2014,08,23,12,14,22.80
2014,08,23,12,15,22.90
2014,08,23,12,16,22.90
2014,08,23,12,17,22.90
2014,08,23,12,18,22.90
2014,08,23,12,19,22.90
2014,08,23,12,20,22.90
2014,08,23,12,21,22.90
2014,08,23,12,22,22.90
2014,08,23,12,23,22.90
2014,08,23,12,24,23.00
2014,08,23,12,25,23.10
2014,08,23,12,26,23.10
2014,08,23,12,27,23.20
2014,08,23,12,28,23.20
2014,08,23,12,29,23.10
2014,08,23,12,30,23.10
2014,08,23,12,31,23.00
2014,08,23,12,32,23.00
2014,08,23,12,33,23.10
2014,08,23,12,34,23.10
2014,08,23,12,35,23.10
2014,08,23,12,36,23.10
2014,08,23,12,37,23.20
2014,08,23,12,38,23.20
2014,08,23,12,39,23.20
2014,08,23,12,40,23.20
2014,08,23,12,41,23.20
2014,08,23,12,42,23.20
2014,08,23,12,43,23.20
2014,08,23,12,44,23.20
2014,08,23,12,45,23.20
2014,08,23,12,46,23.20
2014,08,23,12,47,23.20
2014,08,23,12,48,23.20
2014,08,23,12,49,23.20
2014,08,23,12,50,23.30
2014,08,23,12,51,23.30
2014,08,23,12,52,23.30
2014,08,23,12,53,23.30
2014,08,23,12,54,23.30
2014,08,23,12,55,23.30
2014,08,23,12,56,23.30
2014,08,23,12,57,23.30
2014,08,23,12,58,23.40
2014,08,23,12,59,23.50
2014,08,23,13,00,23.50
2014,08,23,13,01,23.50
2014,08,23,13,02,23.50
2014,08,23,13,03,23.50
2014,08,23,13,04,23.50
2014,08,23,13,05,23.40
2014,08,23,13,06,23.40
2014,08,23,13,07,23.40
2014,08,23,13,08,23.40
2014,08,23,13,09,23.40
2014,08,23,13,10,23.40
2014,08,23,13,11,23.40
2014,08,23,13,12,23.40
2014,08,23,13,13,23.50
2014,08,23,13,14,23.50
2014,08,23,13,15,23.60
2014,08,23,13,16,23.70
2014,08,23,13,17,23.80
2014,08,23,13,18,23.90
2014,08,23,13,19,23.90
2014,08,23,13,20,23.90
2014,08,23,13,21,24.00
2014,08,23,13,22,24.00
2014,08,23,13,23,24.10
2014,08,23,13,24,24.10
2014,08,23,13,25,24.10
2014,08,23,13,26,24.10
2014,08,23,13,27,24.10
2014,08,23,13,28,24.00
2014,08,23,13,29,23.90
2014,08,23,13,30,23.80
2014,08,23,13,31,23.80
2014,08,23,13,32,23.70
2014,08,23,13,33,23.70
2014,08,23,13,34,23.70
2014,08,23,13,35,23.70
2014,08,23,13,36,23.70
2014,08,23,13,37,23.80
2014,08,23,13,38,23.80
2014,08,23,13,39,23.90
2014,08,23,13,40,24.00
2014,08,23,13,41,24.00
2014,08,23,13,42,24.10
2014,08,23,13,43,24.10
2014,08,23,13,44,24.10
2014,08,23,13,45,24.10
2014,08,23,13,46,24.20
2014,08,23,13,47,24.30
2014,08,23,13,48,24.30
2014,08,23,13,49,24.30
2014,08,23,13,50,24.40
2014,08,23,13,51,24.40
2014,08,23,13,52,24.40
2014,08,23,13,53,24.40
2014,08,23,13,54,24.50
2014,08,23,13,55,24.50
2014,08,23,13,56,24.60
2014,08,23,13,57,24.70
2014,08,23,13,58,24.60
2014,08,23,13,59,24.50
2014,08,23,14,00,24.30
2014,08,23,14,01,24.20
2014,08,23,14,02,24.20
2014,08,23,14,03,24.20
2014,08,23,14,04,24.30
2014,08,23,14,05,24.30
2014,08,23,14,06,24.20
2014,08,23,14,07,24.20
2014,08,23,14,08,24.20
2014,08,23,14,09,24.20
2014,08,23,14,10,24.20
2014,08,23,14,11,24.20
2014,08,23,14,12,24.10
2014,08,23,14,13,24.10
2014,08,23,14,14,24.20
2014,08,23,14,15,24.20
2014,08,23,14,16,24.20
2014,08,23,14,17,24.20
2014,08,23,14,18,24.20
2014,08,23,14,19,24.20
2014,08,23,14,20,24.30
2014,08,23,14,21,24.30
2014,08,23,14,22,24.30
2014,08,23,14,23,24.30
2014,08,23,14,24,24.40
2014,08,23,14,25,24.40
2014,08,23,14,26,24.50
2014,08,23,14,27,24.50
2014,08,23,14,28,24.60
2014,08,23,14,29,24.60
2014,08,23,14,30,24.60
2014,08,23,14,31,24.50
2014,08,23,14,32,24.50
2014,08,23,14,33,24.50
2014,08,23,14,34,24.60
2014,08,23,14,35,24.50
2014,08,23,14,36,24.50
2014,08,23,14,37,24.40
2014,08,23,14,38,24.40
2014,08,23,14,39,24.40
2014,08,23,14,40,24.40
2014,08,23,14,41,24.40
2014,08,23,14,42,24.40
2014,08,23,14,43,24.40
2014,08,23,14,44,24.40
2014,08,23,14,45,24.40
2014,08,23,14,46,24.40
2014,08,23,14,47,24.50
2014,08,23,14,48,24.50
2014,08,23,14,49,24.60
2014,08,23,14,50,24.60
2014,08,23,14,51,24.50
2014,08,23,14,52,24.50
2014,08,23,14,53,24.50
2014,08,23,14,54,24.60
2014,08,23,14,55,24.60
2014,08,23,14,56,24.60
2014,08,23,14,57,24.50
2014,08,23,14,58,24.50
2014,08,23,14,59,24.50
2014,08,23,15,00,24.60
2014,08,23,15,01,24.60
2014,08,23,15,02,24.60
2014,08,23,15,03,24.50
2014,08,23,15,04,24.50
2014,08,23,15,05,24.50
2014,08,23,15,06,24.60
2014,08,23,15,07,24.60
2014,08,23,15,08,24.60
2014,08,23,15,09,24.60
2014,08,23,15,10,24.60
2014,08,23,15,11,24.60
2014,08,23,15,12,24.50
2014,08,23,15,13,24.50
2014,08,23,15,14,24.40
2014,08,23,15,15,24.40
2014,08,23,15,16,24.50
2014,08,23,15,17,24.50
2014,08,23,15,18,24.60
2014,08,23,15,19,24.60
2014,08,23,15,20,24.70
2014,08,23,15,21,24.70
2014,08,23,15,22,24.70
2014,08,23,15,23,24.80
2014,08,23,15,24,24.80
2014,08,23,15,25,24.80
2014,08,23,15,26,24.80
2014,08,23,15,27,24.80
2014,08,23,15,28,24.80
2014,08,23,15,29,24.80
2014,08,23,15,30,24.80
2014,08,23,15,31,24.80
2014,08,23,15,32,24.90
2014,08,23,15,33,25.00
2014,08,23,15,34,25.10
2014,08,23,15,35,25.20
2014,08,23,15,36,25.20
2014,08,23,15,37,25.30
2014,08,23,15,38,25.30
2014,08,23,15,39,25.30
2014,08,23,15,40,25.30
2014,08,23,15,41,25.30
2014,08,23,15,42,25.30
2014,08,23,15,43,25.30
2014,08,23,15,44,25.30
2014,08,23,15,45,25.30
2014,08,23,15,46,25.40
2014,08,23,15,47,25.50
2014,08,23,15,48,25.50
2014,08,23,15,49,25.60
2014,08,23,15,50,25.60
2014,08,23,15,51,25.60
2014,08,23,15,52,25.60
2014,08,23,15,53,25.50
2014,08,23,15,54,25.50
2014,08,23,15,55,25.40
2014,08,23,15,56,25.40
2014,08,23,15,57,25.40
2014,08,23,15,58,25.40
2014,08,23,15,59,25.40
2014,08,23,16,00,25.50
2014,08,23,16,01,25.50
2014,08,23,16,02,25.50
2014,08,23,16,03,25.60
2014,08,23,16,04,25.70
2014,08,23,16,05,25.70
2014,08,23,16,06,25.80
2014,08,23,16,07,25.80
2014,08,23,16,08,25.80
2014,08,23,16,09,25.80
2014,08,23,16,10,25.80
2014,08,23,16,11,25.80
2014,08,23,16,12,25.80
2014,08,23,16,13,25.80
2014,08,23,16,14,25.80
2014,08,23,16,15,25.80
2014,08,23,16,16,25.80
2014,08,23,16,17,25.80
2014,08,23,16,18,25.70
2014,08,23,16,19,25.70
2014,08,23,16,20,25.70
2014,08,23,16,21,25.70
2014,08,23,16,22,25.70
2014,08,23,16,23,25.70
2014,08,23,16,24,25.80
2014,08,23,16,25,25.80
2014,08,23,16,26,25.80
2014,08,23,16,27,25.90
2014,08,23,16,28,25.90
2014,08,23,16,29,25.90
2014,08,23,16,30,26.00
2014,08,23,16,31,26.00
2014,08,23,16,32,26.00
2014,08,23,16,33,26.00
2014,08,23,16,34,26.10
2014,08,23,16,35,26.10
2014,08,23,16,36,26.20
2014,08,23,16,37,26.20
2014,08,23,16,38,26.10
2014,08,23,16,39,26.10
2014,08,23,16,40,26.00
2014,08,23,16,41,25.90
2014,08,23,16,42,25.80
2014,08,23,16,43,25.80
2014,08,23,16,44,25.80
2014,08,23,16,45,25.80
2014,08,23,16,46,25.80
2014,08,23,16,47,25.70
2014,08,23,16,48,25.80
2014,08,23,16,49,25.80
2014,08,23,16,50,25.80
2014,08,23,16,51,25.70
2014,08,23,16,52,25.70
2014,08,23,16,53,25.70
2014,08,23,16,54,25.60
2014,08,23,16,55,25.70
2014,08,23,16,56,25.70
2014,08,23,16,57,25.70
2014,08,23,16,58,25.80
2014,08,23,16,59,25.80
2014,08,23,17,00,25.80
2014,08,23,17,01,25.80
2014,08,23,17,02,25.80
2014,08,23,17,03,25.80
2014,08,23,17,04,25.80
2014,08,23,17,05,25.80
2014,08,23,17,06,25.80
2014,08,23,17,07,25.80
2014,08,23,17,08,25.90
2014,08,23,17,09,25.90
2014,08,23,17,10,26.00
2014,08,23,17,11,26.10
2014,08,23,17,12,26.10
2014,08,23,17,13,26.20
2014,08,23,17,14,26.20
2014,08,23,17,15,26.30
2014,08,23,17,16,26.30
2014,08,23,17,17,26.30
2014,08,23,17,18,26.30
2014,08,23,17,19,26.30